When you browse on this site, cookies collect data to enhance your experience and personalize the content and advertising you see.
Visit our Privacy Policy to learn more. By continuing to use the site, you agree to this use of cookies and data.
  • In Austria
  • List of Countries
  • For 7 days
  • Water Temperature
  • Satellite Maps
  • Weather Map
  • News
  • Weather Widgets
  • user-avatar
    Login

    Hourly Weather Przytoczna

    Today, 16 February, Saturday

    Time Temperature Precipitation Wind Pressure Humidity
    00:00 +4°C° 0 mm 1 mps 767 mmHg 80%
    01:00 +4°C° 0 mm 1 mps 767 mmHg 78%
    02:00 +4°C° 0 mm 1 mps 767 mmHg 78%
    03:00 +4°C° 0 mm 1 mps 767 mmHg 77%
    04:00 +3°C° 0 mm 2 mps 766 mmHg 77%
    05:00 +3°C° 0 mm 2 mps 766 mmHg 77%
    06:00 +2°C° 0 mm 2 mps 766 mmHg 77%
    07:00 +2°C° 0 mm 2 mps 766 mmHg 76%
    08:00 +3°C° 0 mm 3 mps 765 mmHg 70%
    09:00 +4°C° 0 mm 3 mps 765 mmHg 65%
    10:00 +7°C° 0 mm 3 mps 765 mmHg 59%
    11:00 +8°C° 0 mm 3 mps 765 mmHg 54%
    12:00 +10°C° 0 mm 4 mps 764 mmHg 50%
    13:00 +13°C° 0 mm 3 mps 764 mmHg 45%
    14:00 +12°C° 0 mm 3 mps 764 mmHg 47%
    15:00 +12°C° 0 mm 3 mps 763 mmHg 49%
    16:00 +12°C° 0 mm 3 mps 763 mmHg 51%
    17:00 +10°C° 0 mm 3 mps 763 mmHg 56%
    18:00 +9°C° 0 mm 3 mps 763 mmHg 62%
    19:00 +8°C° 0 mm 3 mps 763 mmHg 68%
    20:00 +7°C° 0 mm 3 mps 763 mmHg 70%
    21:00 +7°C° 0 mm 3 mps 763 mmHg 72%
    22:00 +5°C° 0 mm 3 mps 763 mmHg 74%
    23:00 +5°C° 0 mm 3 mps 763 mmHg 77%

    Tomorrow, 17 February, Sunday

    Time Temperature Precipitation Wind Pressure Humidity
    00:00 +4°C° 0 mm 3 mps 763 mmHg 80%
    01:00 +4°C° 0 mm 3 mps 763 mmHg 83%
    02:00 +4°C° 0 mm 2 mps 763 mmHg 85%
    03:00 +4°C° 0 mm 2 mps 763 mmHg 86%
    04:00 +3°C° 0 mm 2 mps 763 mmHg 88%
    05:00 +3°C° 0 mm 2 mps 763 mmHg 89%
    06:00 +3°C° 0 mm 2 mps 763 mmHg 91%
    07:00 +3°C° 0 mm 2 mps 763 mmHg 92%
    08:00 +4°C° 0 mm 2 mps 763 mmHg 86%
    09:00 +5°C° 0 mm 2 mps 764 mmHg 81%
    10:00 +6°C° 0 mm 2 mps 764 mmHg 75%
    11:00 +8°C° 0 mm 2 mps 764 mmHg 70%
    12:00 +9°C° 0 mm 2 mps 763 mmHg 65%
    13:00 +10°C° 0 mm 2 mps 763 mmHg 61%
    14:00 +11°C° 0 mm 1 mps 763 mmHg 62%
    15:00 +11°C° 0 mm 1 mps 763 mmHg 63%
    16:00 +11°C° 0 mm 1 mps 763 mmHg 63%
    17:00 +10°C° 0 mm 1 mps 763 mmHg 67%
    18:00 +9°C° 0 mm 1 mps 763 mmHg 72%
    19:00 +8°C° 0 mm 1 mps 763 mmHg 76%
    20:00 +7°C° 0 mm 1 mps 762 mmHg 77%
    21:00 +7°C° 0 mm 1 mps 762 mmHg 78%
    22:00 +5°C° 0 mm 2 mps 762 mmHg 79%
    23:00 +5°C° 0 mm 2 mps 762 mmHg 80%

    Day after tomorrow, 18 February, Monday

    Time Temperature Precipitation Wind Pressure Humidity
    00:00 +5°C° 0 mm 2 mps 762 mmHg 80%
    01:00 +4°C° 0 mm 2 mps 762 mmHg 81%
    02:00 +4°C° 0 mm 2 mps 762 mmHg 80%
    03:00 +3°C° 0 mm 2 mps 761 mmHg 80%
    04:00 +3°C° 0 mm 2 mps 761 mmHg 79%
    05:00 +3°C° 0 mm 2 mps 761 mmHg 80%
    06:00 +3°C° 0 mm 2 mps 761 mmHg 80%
    07:00 +2°C° 0 mm 2 mps 761 mmHg 80%
    08:00 +4°C° 0 mm 2 mps 761 mmHg 75%
    09:00 +5°C° 0 mm 2 mps 761 mmHg 69%
    10:00 +6°C° 0 mm 2 mps 761 mmHg 63%
    11:00 +8°C° 0 mm 2 mps 761 mmHg 58%
    12:00 +9°C° 0 mm 2 mps 760 mmHg 54%
    13:00 +10°C° 0 mm 3 mps 760 mmHg 49%
    14:00 +10°C° 0 mm 2 mps 760 mmHg 50%
    15:00 +10°C° 0 mm 2 mps 759 mmHg 51%
    16:00 +10°C° 0 mm 2 mps 759 mmHg 52%
    17:00 +9°C° 0 mm 2 mps 759 mmHg 57%
    18:00 +8°C° 0 mm 2 mps 759 mmHg 62%
    19:00 +7°C° 0 mm 2 mps 759 mmHg 67%
    20:00 +6°C° 0 mm 2 mps 759 mmHg 69%
    21:00 +6°C° 0 mm 2 mps 759 mmHg 71%
    22:00 +5°C° 0 mm 2 mps 759 mmHg 73%
    23:00 +5°C° 0 mm 2 mps 758 mmHg 74%

    19 February, Tuesday

    Time Temperature Precipitation Wind Pressure Humidity
    00:00 +4°C° 0 mm 3 mps 758 mmHg 75%
    01:00 +3°C° 0 mm 3 mps 758 mmHg 76%
    02:00 +3°C° 0 mm 3 mps 758 mmHg 78%
    03:00 +3°C° 0 mm 3 mps 757 mmHg 80%
    04:00 +3°C° 0 mm 3 mps 757 mmHg 82%
    05:00 +2°C° 0 mm 3 mps 757 mmHg 82%
    06:00 +2°C° 0 mm 3 mps 757 mmHg 81%
    07:00 +2°C° 0 mm 3 mps 756 mmHg 81%
    08:00 +3°C° 0 mm 4 mps 756 mmHg 74%
    09:00 +5°C° 0 mm 4 mps 756 mmHg 68%
    10:00 +6°C° 0 mm 4 mps 756 mmHg 61%
    11:00 +7°C° 0 mm 5 mps 756 mmHg 59%
    12:00 +8°C° 0 mm 5 mps 756 mmHg 56%
    13:00 +10°C° 0 mm 5 mps 755 mmHg 54%
    14:00 +9°C° 0.2 mm 6 mps 755 mmHg 62%
    15:00 +8°C° 0.2 mm 6 mps 755 mmHg 70%
    16:00 +7°C° 0.2 mm 6 mps 755 mmHg 78%
    17:00 +7°C° 0.1 mm 5 mps 756 mmHg 80%
    18:00 +6°C° 0.1 mm 4 mps 756 mmHg 82%
    19:00 +5°C° 0.1 mm 4 mps 757 mmHg 84%
    20:00 +5°C° 0 mm 4 mps 757 mmHg 84%
    21:00 +5°C° 0 mm 4 mps 757 mmHg 84%
    22:00 +4°C° 0 mm 4 mps 758 mmHg 85%
    23:00 +4°C° 0 mm 4 mps 758 mmHg 85%

    20 February, Wednesday

    Time Temperature Precipitation Wind Pressure Humidity
    00:00 +4°C° 0 mm 4 mps 758 mmHg 86%
    01:00 +3°C° 0 mm 4 mps 758 mmHg 87%
    02:00 +3°C° 0 mm 4 mps 758 mmHg 88%
    03:00 +3°C° 0 mm 4 mps 759 mmHg 89%
    04:00 +1°C° 0 mm 4 mps 759 mmHg 91%
    05:00 +1°C° 0 mm 4 mps 759 mmHg 91%
    06:00 +1°C° 0 mm 4 mps 759 mmHg 90%
    07:00 +1°C° 0 mm 4 mps 760 mmHg 90%
    08:00 +2°C° 0 mm 5 mps 760 mmHg 87%
    09:00 +2°C° 0 mm 5 mps 760 mmHg 83%
    10:00 +3°C° 0 mm 5 mps 761 mmHg 79%
    11:00 +5°C° 0 mm 5 mps 761 mmHg 75%
    12:00 +6°C° 0 mm 5 mps 761 mmHg 70%
    13:00 +7°C° 0 mm 5 mps 761 mmHg 65%
    14:00 +7°C° 0 mm 5 mps 761 mmHg 67%
    15:00 +7°C° 0 mm 4 mps 761 mmHg 69%
    16:00 +7°C° 0 mm 4 mps 761 mmHg 70%
    17:00 +7°C° 0 mm 3 mps 762 mmHg 74%
    18:00 +7°C° 0 mm 3 mps 762 mmHg 77%
    19:00 +7°C° 0 mm 3 mps 762 mmHg 80%
    20:00 +5°C° 0 mm 3 mps 762 mmHg 82%
    21:00 +5°C° 0 mm 3 mps 762 mmHg 84%
    22:00 +5°C° 0 mm 3 mps 762 mmHg 86%
    23:00 +4°C° 0 mm 3 mps 762 mmHg 87%

    21 February, Thursday

    Time Temperature Precipitation Wind Pressure Humidity
    00:00 +4°C° 0 mm 3 mps 763 mmHg 88%
    01:00 +4°C° 0 mm 3 mps 763 mmHg 89%
    02:00 +4°C° 0.2 mm 3 mps 762 mmHg 89%
    03:00 +4°C° 0.2 mm 3 mps 762 mmHg 90%
    04:00 +4°C° 0.2 mm 3 mps 762 mmHg 90%
    05:00 +4°C° 0.2 mm 3 mps 762 mmHg 90%
    06:00 +4°C° 0.2 mm 3 mps 762 mmHg 89%
    07:00 +4°C° 0.2 mm 3 mps 762 mmHg 89%
    08:00 +5°C° 0 mm 3 mps 762 mmHg 85%
    09:00 +5°C° 0 mm 4 mps 762 mmHg 81%
    10:00 +6°C° 0 mm 4 mps 762 mmHg 77%
    11:00 +7°C° 0 mm 4 mps 762 mmHg 75%
    12:00 +7°C° 0 mm 4 mps 761 mmHg 74%
    13:00 +8°C° 0 mm 5 mps 761 mmHg 73%
    14:00 +7°C° 0.3 mm 4 mps 761 mmHg 77%
    15:00 +7°C° 0.3 mm 4 mps 761 mmHg 81%
    16:00 +7°C° 0.3 mm 4 mps 761 mmHg 86%
    17:00 +6°C° 0.3 mm 4 mps 761 mmHg 87%
    18:00 +6°C° 0.3 mm 4 mps 761 mmHg 88%
    19:00 +7°C° 0.3 mm 3 mps 761 mmHg 89%
    20:00 +6°C° 0.1 mm 4 mps 761 mmHg 89%
    21:00 +6°C° 0.1 mm 4 mps 761 mmHg 90%
    22:00 +6°C° 0.1 mm 4 mps 761 mmHg 91%
    23:00 +6°C° 0.9 mm 4 mps 761 mmHg 91%
    Show more